San Jose, Costa Rica

9:11 PM CST on August 23, 2016 (GMT -0600)
Juan Santamaria International

Weather History for MROC - November, 2011

Change the Weather History Date:

Saturday, November 26, 2011

  Actual Average Record
Temperature  
Mean Temperature 73 °F -  
Max Temperature 81 °F 79 °F 84 °F (2000)
Min Temperature 65 °F 64 °F 61 °F (2013)
Cooling Degree Days 8    
Growing Degree Days 23 (Base 50)    
Moisture  
Dew Point 67 °F    
Average Humidity 89    
Maximum Humidity 100    
Minimum Humidity 57    
Precipitation  
Precipitation 0.63 in 0.06 in - ()
Sea Level Pressure  
Sea Level Pressure 29.91 in    
Wind  
Wind Speed 3 mph ()    
Max Wind Speed 12 mph    
Max Gust Speed -    
Visibility 5.0 miles    
Events Fog , Rain , Thunderstorm    
Averages and records for this station are not official NWS values.
T = Trace of Precipitation, MM = Missing Value Source: Averaged Metar Reports

Daily Weather History Graph

Daily Weather History Graph

Search for Another Location

Airport or City:

Trip Planner

Search our weather history database for the weather conditions in past years. The results will help you decide how hot, cold, wet, or windy it might be!

Date:

Astronomy

Nov. 26, 2011 Rise Set
Actual Time 5:35 AM CST 5:12 PM CST
Civil Twilight 5:13 AM CST 5:34 PM CST
Nautical Twilight 4:47 AM CST 6:00 PM CST
Astronomical Twilight 4:21 AM CST 6:26 PM CST
Moon 6:56 AM CST (11/26) 6:50 PM CST (11/26)
Length of Visible Light 12h 21m
Length of Day
11h 36m
Waxing Crescent, 3% of the Moon is Illuminated
Nov 26
Waxing Crescent
Dec 2
First Quarter
Dec 10
Full
Dec 17
Last Quarter
Dec 24
New

Hourly Weather History & Observations

Time (CST) Temp. Heat Index Dew Point Humidity Pressure Visibility Wind Dir Wind Speed Gust Speed Precip Events Conditions
12:00 AM 67 °F - 67 °F 100% 29.87 in 1 mi Calm Calm - -   Mist
12:00 AM 68.0 °F - 66.2 °F 94% 29.98 in 0.8 mi Calm Calm - N/A   Mostly Cloudy
12:40 AM 68.0 °F - 66.2 °F 94% 29.97 in 6.2 mi Calm Calm - N/A   Mostly Cloudy
1:00 AM 68.0 °F - 66.2 °F 94% 29.97 in 6.2 mi Calm Calm - N/A   Mostly Cloudy
2:00 AM 66.2 °F - 66.2 °F 100% 29.93 in 6.2 mi NNE 4.6 mph - N/A   Mostly Cloudy
3:00 AM 66 °F - 64 °F 92% 29.82 in 12 mi East 3.5 mph - -   Partly Cloudy
3:00 AM 66.2 °F - 64.4 °F 94% 29.91 in - East 3.5 mph - N/A   Clear
4:00 AM 68.0 °F - 64.4 °F 88% 29.91 in 6.2 mi ESE 6.9 mph - N/A   Scattered Clouds
5:00 AM 66.2 °F - 64.4 °F 94% 29.94 in 6.2 mi WNW 2.3 mph - N/A   Scattered Clouds
6:00 AM - - - %  in 12 mi NNE 3.5 mph - -  
6:00 AM 64.4 °F - 64.4 °F 100% 29.95 in 6.2 mi NNE 3.5 mph - N/A   Scattered Clouds
7:00 AM 68.0 °F - 64.4 °F 88% 29.98 in 6.2 mi NE 2.3 mph - N/A   Mostly Cloudy
8:00 AM 73.4 °F - 66.2 °F 78% 30.00 in 6.2 mi NNE 3.5 mph - N/A   Scattered Clouds
9:00 AM 77 °F - 64 °F 57% 29.86 in 12 mi ENE 4.6 mph - -   Scattered Clouds
9:00 AM 77.0 °F - 64.4 °F 65% 29.98 in 6.2 mi ENE 4.6 mph - N/A   Scattered Clouds
10:00 AM 80.6 °F 82.3 °F 64.4 °F 58% 29.97 in 6.2 mi SE 2.3 mph - N/A   Mostly Cloudy
11:00 AM 77.0 °F - 68.0 °F 74% 29.95 in 6.2 mi WSW 10.4 mph - N/A   Scattered Clouds
12:00 PM 75 °F - 70 °F 79% 29.80 in 12 mi WSW 10.4 mph - -   Overcast
12:00 PM 75.2 °F - 69.8 °F 83% 29.93 in 6.2 mi WSW 10.4 mph - N/A   Mostly Cloudy
1:00 PM 75.2 °F - 68.0 °F 78% 29.91 in 6.2 mi WSW 9.2 mph - N/A   Mostly Cloudy
2:00 PM 73.4 °F - 69.8 °F 88% 29.89 in 6.2 mi SW 9.2 mph - N/A   Mostly Cloudy
2:22 PM 71.6 °F - 68.0 °F 88% 29.88 in 3.7 mi WSW 11.5 mph - N/A Rain Rain
2:40 PM 71.6 °F - 69.8 °F 94% 29.89 in 1.2 mi WSW 11.5 mph - N/A Rain , Thunderstorm Thunderstorms and Rain
3:00 PM 70 °F - 68 °F 91% 29.79 in 1 mi WSW 9.2 mph - -   Overcast
3:00 PM 69.8 °F - 68.0 °F 94% 29.89 in 0.6 mi WSW 9.2 mph - N/A Rain Rain
4:00 PM 69.8 °F - 68.0 °F 94% 29.90 in 1.2 mi SW 5.8 mph - N/A Rain Light Rain
5:00 PM 69.8 °F - 68.0 °F 94% 29.90 in 1.2 mi SW 3.5 mph - N/A Rain Light Rain
6:00 PM 69 °F - 68 °F 96% 29.80 in 1 mi SSW 3.5 mph - - Fog Light Fog
6:00 PM 68.0 °F - 68.0 °F 100% 29.92 in 1.2 mi SSW 3.5 mph - N/A   Mostly Cloudy
6:41 PM 68.0 °F - 68.0 °F 100% 29.93 in 5.0 mi Calm Calm - N/A Fog Fog
7:00 PM 69.8 °F - 68.0 °F 94% 29.93 in 5.0 mi NNW 2.3 mph - N/A Fog Fog
8:00 PM 68.0 °F - 68.0 °F 100% 29.93 in 5.0 mi Calm Calm - N/A Fog Fog
9:00 PM 68.0 °F - 68.0 °F 100% 29.94 in 6.2 mi Calm Calm - N/A   Mostly Cloudy
10:00 PM 68.0 °F - 66.2 °F 94% 29.94 in 0.5 mi NNW 3.5 mph - N/A Fog Fog
11:00 PM 66.2 °F - 66.2 °F 100% 29.94 in 0.7 mi Calm Calm - N/A   Scattered Clouds